[[{"header":{"parameterUnit":"m.s-1","parameterCategory":2,"la1":30.2991,"la2":30.254,"lo1":-89.0895,"lo2":-89.0444,"dy":0.0017,"dx":0.0017,"nx":28,"ny":28,"refTime":"2025-04-23T03:00:00:Z","depth":"0","parameterNumber":2,"parameterNumberName":"U-component_of_CURRENTS"},"data":[0,0,0,0,0,0,0,0,0,0,0,0,0,0,0,0,0,0,0,0,0,0,0,0,0,0,0,0,0,0,0,0,0,0,0,0,0,0,0,0,0,0,0,0,0,0,0,0,0,0,0,0,0,0,0,0,0,0,0.222,0.2221,0,0.2275,0.2275,0.2276,0.2309,0.2309,0.2309,0.231,0.2323,0.2323,0.2324,0,0,0,0,0,0,0,0,0,0,0,0,0,0.2157,0.2157,0.222,0.2221,0.2222,0.2275,0.2275,0.2276,0.2309,0.2309,0.2309,0.231,0.2323,0.2323,0.2324,0,0,0,0,0,0,0,0,0,0,0,0,0,0.2193,0.2158,0.222,0.2246,0.225,0.2275,0.2275,0.2276,0.2308,0.2309,0.231,0.231,0.2323,0.2323,0.2324,0.2313,0,0,0.2324,0.2324,0,0,0,0,0,0,0,0,0.2191,0.2195,0.2242,0.2245,0.2248,0.2288,0.2258,0.2287,0.2308,0.2284,0.231,0.231,0.2309,0.231,0.2316,0.2313,0.2314,0.2324,0.2324,0.2324,0.2324,0,0,0,0,0,0,0,0.2188,0.2193,0.224,0.2243,0.2247,0.226,0.2265,0.2264,0.229,0.2286,0.2289,0.2298,0.231,0.2316,0.2317,0.2314,0.2324,0.2324,0.2324,0.2324,0.2318,0.2318,0,0,0,0,0,0,0.2185,0.219,0.2238,0.2241,0.2223,0.2261,0.2267,0.2272,0.2291,0.2295,0.2298,0.23,0.2316,0.2317,0.2317,0.2318,0.2324,0.2324,0.2324,0.2318,0.2318,0.2318,0,0,0,0,0,0,0.2183,0.2188,0.2236,0.2219,0.2226,0.2261,0.2268,0.2273,0.2285,0.2301,0.2304,0.2305,0.2316,0.2317,0.2319,0.2318,0.2324,0.2324,0.2319,0.2318,0.2318,0.231,0,0,0,0,0,0,0.2181,0.2187,0.2188,0.2219,0.2227,0.2248,0.2268,0.2274,0.2291,0.2294,0.2308,0.231,0.2317,0.2319,0.2319,0.2318,0.2324,0.2319,0.2318,0.2318,0.2311,0.231,0.2309,0,0,0,0,0,0.2178,0.2172,0.2187,0.2193,0.2227,0.2248,0.2253,0.2279,0.2291,0.2292,0.2304,0.231,0.2317,0.2319,0.2319,0.2318,0.2319,0.2318,0.2318,0.2311,0.231,0.2309,0,0,0,0,0,0,0.2139,0.2177,0.2193,0.2198,0.2223,0.2255,0.2259,0.2278,0.2289,0.2292,0.2306,0.2308,0.2309,0.2313,0.2314,0.2315,0.2319,0.2319,0.2314,0.2313,0.2312,0.2318,0.2324,0,0,0,0,0,0.2133,0.2141,0.2178,0.2181,0.2194,0.2227,0.2239,0.2258,0.2275,0.2282,0.2291,0.23,0.2306,0.2309,0.2312,0.231,0.2334,0.231,0.2309,0.2308,0.2313,0.2347,0.235,0.2317,0.2317,0.2317,0,0,0.2116,0.214,0.2143,0.2174,0.2196,0.2211,0.2235,0.2251,0.2263,0.2279,0.2286,0.2294,0.2305,0.2306,0.2307,0.231,0.2331,0.2308,0.2307,0.2313,0.2347,0.2351,0.2354,0.2316,0.2316,0.2316,0,0,0.2094,0.2112,0.2116,0.2138,0.2174,0.2194,0.22,0.2232,0.2244,0.2253,0.227,0.2281,0.2283,0.2298,0.2305,0.23,0.2324,0.2296,0.2298,0.2331,0.2334,0.2338,0.2376,0.2383,0.2297,0.2297,0.2297,0,0.2073,0.2089,0.2118,0.2133,0.215,0.2187,0.2196,0.2213,0.2239,0.2248,0.2251,0.2275,0.2282,0.23,0.23,0.2299,0.2324,0.2302,0.2331,0.2335,0.2338,0.2377,0.2385,0.2297,0.2297,0.2297,0.2297,0,0.2062,0.2076,0.2079,0.2113,0.2131,0.2143,0.2178,0.219,0.2207,0.2227,0.2244,0.226,0.2278,0.2281,0.2289,0.2316,0.2328,0.2326,0.2336,0.2342,0.2382,0.239,0.2296,0.2296,0.2297,0.2297,0,0,0.2013,0.2061,0.2063,0.208,0.2124,0.2136,0.2155,0.2183,0.2194,0.2217,0.2233,0.2254,0.227,0.2279,0.2295,0.2324,0.2371,0.2336,0.2337,0.2378,0.2453,0.2458,0.2467,0.2376,0.2377,0.2378,0.2473,0,0.1997,0.2018,0.2047,0.2063,0.2078,0.2118,0.2131,0.216,0.2182,0.2201,0.2235,0.2251,0.2267,0.2277,0.231,0.2353,0.2391,0.2346,0.2438,0.2441,0.2448,0.2476,0.2346,0.2419,0.2481,0.2483,0.2484,0,0.1979,0.2,0.2012,0.205,0.2058,0.2067,0.2101,0.2118,0.2158,0.2176,0.221,0.2237,0.2287,0.2293,0.2388,0.2359,0.2407,0.2444,0.2448,0.2461,0.2461,0.2423,0.2432,0.2266,0.2496,0.2495,0.2494,0,0.1938,0.1973,0.198,0.1994,0.2039,0.2046,0.2067,0.2105,0.2129,0.2163,0.2193,0.2241,0.2285,0.2342,0.2431,0.2409,0.2541,0.2516,0.2571,0.2572,0.2484,0.2476,0.2346,0.2588,0.2587,0.2587,0.2587,0,0.1912,0.1917,0.1959,0.1964,0.1971,0.2012,0.2024,0.205,0.2098,0.2126,0.2179,0.2223,0.2302,0.2389,0.2442,0.2547,0.2557,0.2585,0.26,0.2478,0.2468,0.2339,0.2309,0.2591,0.259,0.2589,0.2589,0,0.1864,0.1891,0.1903,0.1942,0.1952,0.1956,0.2007,0.2017,0.2073,0.2116,0.2135,0.2233,0.2337,0.2433,0.2541,0.2578,0.2571,0.2695,0.2555,0.2552,0.2417,0.2394,0.2321,0.2263,0.2748,0.2749,0.2749,0,0.184,0.1841,0.1878,0.1882,0.1897,0.1917,0.1929,0.1989,0.2013,0.2124,0.2143,0.2268,0.2338,0.2517,0.2597,0.2704,0.26,0.2646,0.2573,0.24,0.2386,0.2306,0.2256,0.2456,0.2454,0.2452,0.2451,0,0.1795,0.1806,0.1816,0.183,0.1839,0.1858,0.1886,0.1911,0.1985,0.2046,0.2128,0.2196,0.2371,0.242,0.2579,0.2622,0.2465,0.262,0.246,0.2172,0.2056,0.2009,0.241,0.2438,0.2439,0.244,0.2441,0.2441,0.1755,0.1748,0.176,0.1767,0.178,0.1788,0.1787,0.1837,0.1884,0.1957,0.2061,0.2127,0.2211,0.2407,0.2459,0.2366,0.2417,0.2244,0.2244,0.2186,0.2077,0.2466,0.2498,0.25,0.2501,0.2503,0.2504,0,0.17,0.1696,0.1699,0.1701,0.1692,0.1723,0.1745,0.1739,0.1772,0.1865,0.1937,0.1962,0.1993,0.2049,0.2036,0.1966,0.1897,0.1868,0.1666,0.165,0.1989,0.1915,0.1796,0.1796,0.1796,0.1796,0.1796,0.1797,0.1667,0.1644,0.1645,0.161,0.1613,0.1581,0.1583,0.1589,0.1632,0.1648,0.1653,0.1708,0.1706,0.1655,0.1544,0.1517,0.1378,0.1333,0.1353,0.15,0.1531,0.1561,0.1475,0.1265,0.1265,0.089,0.0887,0.0885]},{"header":{"parameterUnit":"m.s-1","parameterCategory":2,"la1":30.2991,"la2":30.254,"lo1":-89.0895,"lo2":-89.0444,"dy":0.0017,"dx":0.0017,"nx":28,"ny":28,"refTime":"2025-04-23T03:00:00:Z","depth":"0","parameterNumber":3,"parameterNumberName":"V-component_of_CURRENTS"},"data":[0,0,0,0,0,0,0,0,0,0,0,0,0,0,0,0,0,0,0,0,0,0,0,0,0,0,0,0,0,0,0,0,0,0,0,0,0,0,0,0,0,0,0,0,0,0,0,0,0,0,0,0,0,0,0,0,0,0,-0.0008,-0.0009,0,-0.0084,-0.0085,-0.0086,-0.0123,-0.0123,-0.0123,-0.0123,-0.0168,-0.0169,-0.017,0,0,0,0,0,0,0,0,0,0,0,0,0,0.0063,0.0063,-0.0008,-0.0009,-0.001,-0.0084,-0.0085,-0.0086,-0.0123,-0.0123,-0.0123,-0.0123,-0.0167,-0.0169,-0.017,0,0,0,0,0,0,0,0,0,0,0,0,0,0.0015,0.0062,-0.0008,-0.0037,-0.0041,-0.0084,-0.0085,-0.0086,-0.0123,-0.0123,-0.0123,-0.0123,-0.0167,-0.0169,-0.017,-0.018,0,0,-0.0176,-0.0176,0,0,0,0,0,0,0,0,0.0018,0.0012,-0.0032,-0.0036,-0.0039,-0.0094,-0.0076,-0.0116,-0.0123,-0.0092,-0.0123,-0.0123,-0.014,-0.0144,-0.0159,-0.0182,-0.0184,-0.0176,-0.0177,-0.0178,-0.0178,0,0,0,0,0,0,0,0.0021,0.0015,-0.0038,-0.0033,-0.0038,-0.0061,-0.0068,-0.0084,-0.0114,-0.0094,-0.0097,-0.0106,-0.0142,-0.0157,-0.016,-0.0185,-0.0176,-0.0177,-0.0178,-0.0179,-0.0209,-0.0209,0,0,0,0,0,0,0.0032,0.0019,-0.0035,-0.004,-0.0011,-0.0063,-0.007,-0.0076,-0.0115,-0.0121,-0.0106,-0.0108,-0.0154,-0.0158,-0.0161,-0.0153,-0.0178,-0.0179,-0.018,-0.0209,-0.0209,-0.0209,0,0,0,0,0,0,0.0034,0.0028,-0.0032,-0.0013,-0.0022,-0.0063,-0.0071,-0.0078,-0.009,-0.0124,-0.013,-0.011,-0.0154,-0.0159,-0.0171,-0.0156,-0.018,-0.0182,-0.021,-0.0209,-0.0209,-0.015,0,0,0,0,0,0,0.0036,0.0029,0.003,-0.0012,-0.0023,-0.0046,-0.0071,-0.0079,-0.0095,-0.0098,-0.0129,-0.0134,-0.0155,-0.0168,-0.0173,-0.0158,-0.0183,-0.021,-0.0209,-0.0209,-0.0152,-0.0147,-0.0144,0,0,0,0,0,0.0039,0.0042,0.003,0.0024,-0.0021,-0.0045,-0.0053,-0.0083,-0.0095,-0.0094,-0.0118,-0.0133,-0.0168,-0.0169,-0.0175,-0.0161,-0.021,-0.021,-0.0209,-0.0154,-0.0148,-0.0144,0,0,0,0,0,0,0.0073,0.0037,0.0023,0.0015,-0.0008,-0.0051,-0.0056,-0.0077,-0.0098,-0.0098,-0.0131,-0.0137,-0.0141,-0.0162,-0.0162,-0.0169,-0.0191,-0.0192,-0.0147,-0.0142,-0.0138,-0.0127,-0.0184,0,0,0,0,0,0.0081,0.0074,0.0037,0.0032,0.0023,-0.0015,-0.0029,-0.0048,-0.0074,-0.0083,-0.0106,-0.0129,-0.0144,-0.0151,-0.0169,-0.0173,-0.0186,-0.0168,-0.0164,-0.016,-0.0155,-0.0165,-0.0161,-0.0207,-0.0207,-0.0207,0,0,0.0092,0.0072,0.0067,0.0039,0.0018,0.0011,-0.0023,-0.0037,-0.004,-0.0083,-0.009,-0.0114,-0.0143,-0.0147,-0.015,-0.0161,-0.0152,-0.0159,-0.0156,-0.0153,-0.0164,-0.016,-0.0156,-0.0207,-0.0207,-0.0207,0,0,0.0113,0.0095,0.0097,0.0081,0.0055,0.0034,0.0034,-0.0002,-0.0013,-0.0027,-0.0056,-0.007,-0.0098,-0.0114,-0.0126,-0.011,-0.0129,-0.0115,-0.0083,-0.0092,-0.0088,-0.0085,-0.0083,-0.008,-0.0113,-0.0113,-0.0113,0,0.013,0.0122,0.0095,0.0093,0.0084,0.005,0.0052,0.0037,0.0002,-0.0002,-0.0018,-0.0058,-0.0081,-0.0086,-0.0082,-0.0098,-0.0105,-0.0097,-0.0085,-0.0082,-0.008,-0.0079,-0.0077,-0.011,-0.011,-0.011,-0.0111,0,0.0147,0.0143,0.0144,0.0132,0.0123,0.012,0.0097,0.0092,0.0073,0.0053,0.0043,0.0006,-0.0017,-0.0026,-0.005,-0.0044,-0.0054,-0.0077,-0.0094,-0.0072,-0.0072,-0.0071,-0.0106,-0.0107,-0.0108,-0.0108,0,0,0.0178,0.0161,0.0161,0.0162,0.0143,0.0138,0.0144,0.0135,0.0141,0.0111,0.0116,0.0082,0.0058,0.0042,0.0011,0.0001,0.0012,-0.0028,-0.003,-0.0018,0.0002,0.0005,0.0007,-0.0008,-0.0008,-0.0008,-0.0001,0,0.0199,0.0206,0.0192,0.0204,0.0205,0.0186,0.0195,0.0186,0.0173,0.0171,0.0139,0.0126,0.0085,0.0075,0.006,0.0023,0.0017,0.0013,-0.003,-0.003,-0.0024,0.0009,0.0069,0.008,0.0,0.0,0.0001,0,0.0217,0.0219,0.0233,0.0237,0.0237,0.0243,0.0251,0.0252,0.0246,0.0236,0.022,0.0192,0.0174,0.0133,0.0092,0.0092,0.0054,0.0023,0.0022,0.0006,-0.0024,0.0041,0.0086,0.003,0.0003,0.0003,0.0002,0,0.0242,0.0248,0.0262,0.0261,0.0262,0.0271,0.0272,0.0271,0.0283,0.0274,0.0286,0.0251,0.0242,0.0191,0.013,0.011,0.009,0.0052,0.0023,0.0023,0.0055,0.0058,0.0048,0.0027,0.0027,0.0027,0.0027,0,0.0262,0.0274,0.0274,0.028,0.0307,0.0295,0.0322,0.032,0.033,0.0361,0.0319,0.0341,0.0255,0.0233,0.0163,0.0112,0.0117,0.0041,0.0028,0.0078,0.0082,0.0017,-0.003,0.0027,0.0027,0.0027,0.0027,0,0.0284,0.0281,0.03,0.0309,0.0316,0.0332,0.0356,0.0378,0.0381,0.0423,0.0425,0.0413,0.039,0.0313,0.0239,0.0165,0.0087,0.0081,0.0153,0.0148,0.0052,0.0005,-0.0014,-0.0033,0.0049,0.0049,0.0049,0,0.0295,0.0306,0.0325,0.0343,0.0347,0.0371,0.0394,0.04,0.0431,0.0476,0.0508,0.0501,0.0525,0.0426,0.0304,0.0203,0.0124,0.0157,0.012,0.0069,0.0006,-0.0018,-0.0035,0.0192,0.0194,0.0195,0.0196,0,0.0322,0.0328,0.0346,0.0382,0.0407,0.0441,0.0475,0.0511,0.0538,0.0591,0.0657,0.0683,0.0607,0.0551,0.0404,0.0314,0.0142,0.0174,0.0107,0.0111,0.0099,0.0068,0.0166,0.0205,0.0204,0.0203,0.0203,0.0203,0.0346,0.0367,0.0391,0.0428,0.0462,0.0516,0.0561,0.0618,0.0695,0.0806,0.0797,0.0887,0.0767,0.0591,0.0454,0.0236,0.0206,0.0172,0.012,0.01,0.0083,0.0204,0.0228,0.0228,0.0227,0.0226,0.0226,0,0.0374,0.0399,0.0438,0.0485,0.0536,0.0544,0.0624,0.0689,0.0807,0.0929,0.1013,0.1027,0.0895,0.0684,0.0382,0.022,0.0159,0.0128,0.0113,0.0095,0.0202,0.0209,0.0249,0.0249,0.0249,0.0249,0.0249,0.0249,0.0389,0.043,0.0452,0.0541,0.0582,0.0667,0.0722,0.083,0.0937,0.1104,0.119,0.1224,0.1045,0.056,0.0226,0.0144,0.0027,0.0034,-0.0061,0.0012,0.0012,0.0012,0.0009,0.0006,0.0005,-0.0107,-0.0108,-0.011]}],[{"header":{"parameterUnit":"m.s-1","parameterCategory":2,"la1":30.2991,"la2":30.254,"lo1":-89.0895,"lo2":-89.0444,"dy":0.0017,"dx":0.0017,"nx":28,"ny":28,"refTime":"2025-04-23T03:00:00:Z","depth":"2","parameterNumber":2,"parameterNumberName":"U-component_of_CURRENTS"},"data":[0,0,0,0,0,0,0,0,0,0,0,0,0,0,0,0,0,0,0,0,0,0,0,0,0,0,0,0,0,0,0,0,0,0,0,0,0,0,0,0,0,0,0,0,0,0,0,0,0,0,0,0,0,0,0,0,0,0,0.1835,0.1834,0,0.18,0.18,0.1799,0.1795,0.1795,0.1796,0.1796,0.1735,0.1733,0.1731,0,0,0,0,0,0,0,0,0,0,0,0,0,0.1909,0.1907,0.1835,0.1834,0.1834,0.1801,0.18,0.1799,0.1794,0.1795,0.1796,0.1797,0.1736,0.1733,0.1731,0,0,0,0,0,0,0,0,0,0,0,0,0,0.1873,0.1907,0.1835,0.1831,0.183,0.1801,0.18,0.1799,0.1794,0.1795,0.1796,0.1797,0.1737,0.1734,0.173,0.1691,0,0,0.172,0.1719,0,0,0,0,0,0,0,0,0.1875,0.1869,0.1831,0.1831,0.183,0.1806,0.1804,0.1762,0.1794,0.1804,0.1796,0.1798,0.1758,0.1753,0.174,0.1688,0.1685,0.172,0.1718,0.1716,0.1715,0,0,0,0,0,0,0,0.1877,0.1871,0.1818,0.1831,0.1831,0.1835,0.1831,0.1796,0.1773,0.1803,0.1804,0.1805,0.1757,0.1743,0.1738,0.1684,0.172,0.1717,0.1715,0.1714,0.1646,0.1646,0,0,0,0,0,0,0.1886,0.1873,0.1819,0.1817,0.1859,0.1833,0.1828,0.181,0.1774,0.1771,0.1804,0.1805,0.1748,0.1742,0.1736,0.1733,0.1716,0.1713,0.1711,0.1646,0.1646,0.1647,0,0,0,0,0,0,0.1887,0.1881,0.182,0.1849,0.1842,0.1831,0.1811,0.1809,0.1812,0.1776,0.1771,0.1813,0.1749,0.1741,0.1719,0.1729,0.1712,0.1709,0.1646,0.1646,0.1646,0.1696,0,0,0,0,0,0,0.1889,0.1881,0.1878,0.1848,0.184,0.1811,0.181,0.1808,0.1812,0.1813,0.178,0.1775,0.1749,0.1725,0.1716,0.1724,0.1706,0.1646,0.1646,0.1646,0.1694,0.1698,0.1701,0,0,0,0,0,0.1892,0.1873,0.1877,0.1871,0.1833,0.1811,0.1807,0.1801,0.1812,0.1809,0.1793,0.1777,0.1721,0.1722,0.1712,0.1719,0.1645,0.1646,0.1646,0.1693,0.1697,0.1701,0,0,0,0,0,0,0.1898,0.187,0.1874,0.1847,0.1839,0.1812,0.1808,0.181,0.1795,0.1799,0.1772,0.1764,0.1751,0.1725,0.1726,0.1701,0.1683,0.1682,0.1722,0.1726,0.173,0.1739,0.1703,0,0,0,0,0,0.19,0.1881,0.1863,0.1845,0.1842,0.1832,0.1827,0.1824,0.1806,0.1802,0.1784,0.1763,0.174,0.1728,0.1701,0.168,0.169,0.1681,0.1684,0.1688,0.1689,0.1715,0.1722,0.1648,0.1648,0.1648,0,0,0.1897,0.1882,0.1871,0.1847,0.1839,0.1826,0.183,0.1822,0.1818,0.1795,0.1785,0.1773,0.1738,0.172,0.1712,0.1703,0.1718,0.1688,0.1691,0.169,0.1717,0.1724,0.1731,0.1648,0.1648,0.1648,0,0,0.1877,0.187,0.1849,0.1844,0.1839,0.1831,0.1836,0.1822,0.1825,0.1812,0.1802,0.1797,0.1757,0.174,0.1724,0.1729,0.1737,0.1727,0.175,0.1776,0.1783,0.1789,0.1834,0.1844,0.1728,0.1728,0.1728,0,0.1878,0.185,0.1843,0.1828,0.183,0.1836,0.1827,0.1821,0.1806,0.1814,0.1816,0.1791,0.1764,0.175,0.1756,0.1737,0.1766,0.1738,0.1783,0.1789,0.1794,0.1839,0.1849,0.173,0.173,0.173,0.173,0,0.1841,0.1831,0.1821,0.1805,0.1805,0.1798,0.1799,0.1805,0.182,0.1821,0.1829,0.1805,0.1799,0.179,0.1771,0.1794,0.1809,0.1789,0.1777,0.1805,0.185,0.186,0.1734,0.1733,0.1732,0.1732,0,0,0.1815,0.1797,0.1797,0.1802,0.1799,0.1795,0.1797,0.1803,0.182,0.1822,0.1844,0.1818,0.1839,0.1823,0.1813,0.1828,0.1895,0.1832,0.1833,0.1887,0.1984,0.1959,0.1967,0.1895,0.1897,0.1898,0.201,0,0.1796,0.1769,0.1767,0.1763,0.1759,0.1777,0.1783,0.1797,0.1813,0.1835,0.184,0.1851,0.1842,0.1855,0.1873,0.1885,0.1919,0.1868,0.194,0.1942,0.1924,0.1976,0.1738,0.1814,0.2019,0.202,0.2022,0,0.1769,0.1759,0.1746,0.1765,0.1767,0.1769,0.1804,0.181,0.184,0.1859,0.1885,0.1895,0.1924,0.191,0.1972,0.1949,0.1978,0.1986,0.199,0.1953,0.1933,0.1813,0.1823,0.2037,0.2036,0.2035,0.2034,0,0.1767,0.1755,0.1751,0.1753,0.1763,0.1779,0.1795,0.1825,0.1844,0.1885,0.1916,0.1948,0.1981,0.2014,0.2054,0.2025,0.2129,0.2085,0.2092,0.2092,0.1892,0.1872,0.2137,0.2137,0.2137,0.2136,0.2136,0,0.1751,0.1754,0.1755,0.1754,0.1772,0.1789,0.1819,0.184,0.1879,0.191,0.1943,0.1976,0.2012,0.2072,0.2091,0.2142,0.2172,0.2114,0.212,0.1905,0.1885,0.2068,0.2058,0.2141,0.214,0.2139,0.2138,0,0.1745,0.1742,0.1745,0.1759,0.177,0.1789,0.183,0.1844,0.1899,0.1943,0.1963,0.2023,0.2105,0.2154,0.2215,0.2195,0.2233,0.2244,0.2006,0.1981,0.2168,0.216,0.225,0.225,0.225,0.225,0.225,0,0.1734,0.1732,0.1747,0.1748,0.1755,0.1785,0.1799,0.1848,0.1863,0.1966,0.1979,0.2083,0.2122,0.2224,0.2178,0.2216,0.2294,0.2052,0.1931,0.2183,0.218,0.2172,0.2163,0.1698,0.1693,0.1689,0.1687,0,0.1712,0.1722,0.1716,0.1721,0.1734,0.1749,0.1777,0.1795,0.186,0.1911,0.1983,0.2027,0.2086,0.1987,0.2039,0.2027,0.2019,0.198,0.2305,0.171,0.1672,0.1666,0.1674,0.1654,0.1657,0.1659,0.1661,0.1663,0.1694,0.1685,0.1675,0.168,0.1692,0.1698,0.17,0.1729,0.1766,0.1771,0.1863,0.1831,0.1816,0.173,0.1723,0.1721,0.1851,0.1764,0.1771,0.1783,0.1703,0.1667,0.1634,0.1637,0.164,0.1642,0.1644,0,0.1641,0.1636,0.1631,0.1623,0.161,0.1649,0.1664,0.1625,0.1641,0.1603,0.1605,0.1411,0.1341,0.1398,0.1296,0.1319,0.1259,0.1321,0.1199,0.1232,0.1261,0.115,0.0938,0.0936,0.0935,0.0934,0,0,0.1607,0.1571,0.1565,0.1531,0.1543,0.1515,0.1519,0.1456,0.1396,0.1271,0.1184,0.1146,0.1251,0.101,0.1016,0.0963,0.1085,0.0932,0.1486,0.1367,0.1394,0.15,0.1365,0,0,0,0,0]},{"header":{"parameterUnit":"m.s-1","parameterCategory":2,"la1":30.2991,"la2":30.254,"lo1":-89.0895,"lo2":-89.0444,"dy":0.0017,"dx":0.0017,"nx":28,"ny":28,"refTime":"2025-04-23T03:00:00:Z","depth":"2","parameterNumber":3,"parameterNumberName":"V-component_of_CURRENTS"},"data":[0,0,0,0,0,0,0,0,0,0,0,0,0,0,0,0,0,0,0,0,0,0,0,0,0,0,0,0,0,0,0,0,0,0,0,0,0,0,0,0,0,0,0,0,0,0,0,0,0,0,0,0,0,0,0,0,0,0,-0.0489,-0.0489,0,-0.0555,-0.0555,-0.0556,-0.0607,-0.0608,-0.0609,-0.0609,-0.07,-0.0702,-0.0704,0,0,0,0,0,0,0,0,0,0,0,0,0,-0.0394,-0.0396,-0.0488,-0.0489,-0.049,-0.0555,-0.0555,-0.0556,-0.0607,-0.0608,-0.0609,-0.0609,-0.07,-0.0702,-0.0704,0,0,0,0,0,0,0,0,0,0,0,0,0,-0.0444,-0.0396,-0.0488,-0.0524,-0.0528,-0.0554,-0.0555,-0.0556,-0.0607,-0.0608,-0.0609,-0.061,-0.0699,-0.0702,-0.0704,-0.0704,0,0,-0.0713,-0.0714,0,0,0,0,0,0,0,0,-0.0441,-0.0447,-0.0518,-0.0522,-0.0526,-0.0575,-0.0556,-0.0607,-0.0607,-0.0576,-0.0609,-0.061,-0.0661,-0.0667,-0.0675,-0.0708,-0.0712,-0.0713,-0.0715,-0.0716,-0.0717,0,0,0,0,0,0,0,-0.0438,-0.0445,-0.0514,-0.0519,-0.0524,-0.0533,-0.0541,-0.0565,-0.0612,-0.0579,-0.0583,-0.0592,-0.0663,-0.0672,-0.0678,-0.0713,-0.0713,-0.0716,-0.0717,-0.0718,-0.0796,-0.0797,0,0,0,0,0,0,-0.0432,-0.0442,-0.0512,-0.0516,-0.0486,-0.0534,-0.0543,-0.0557,-0.0611,-0.0621,-0.0591,-0.0594,-0.0667,-0.0674,-0.0681,-0.0715,-0.0716,-0.0719,-0.072,-0.0796,-0.0796,-0.0797,0,0,0,0,0,0,-0.043,-0.0437,-0.0509,-0.0481,-0.0491,-0.0535,-0.055,-0.0558,-0.0579,-0.0621,-0.063,-0.0606,-0.0668,-0.0677,-0.0712,-0.0717,-0.072,-0.0722,-0.0796,-0.0796,-0.0797,-0.0762,0,0,0,0,0,0,-0.0427,-0.0436,-0.0445,-0.048,-0.0492,-0.0524,-0.055,-0.0559,-0.0583,-0.0588,-0.0636,-0.0645,-0.0669,-0.0707,-0.0714,-0.0721,-0.0725,-0.0795,-0.0796,-0.0796,-0.0762,-0.0761,-0.076,0,0,0,0,0,-0.0423,-0.0429,-0.0445,-0.0453,-0.0502,-0.0524,-0.0531,-0.0564,-0.0583,-0.0587,-0.0625,-0.0644,-0.0717,-0.071,-0.0718,-0.0726,-0.0795,-0.0796,-0.0796,-0.0763,-0.0761,-0.076,0,0,0,0,0,0,-0.0386,-0.0436,-0.0454,-0.0473,-0.0497,-0.0533,-0.0542,-0.0566,-0.0598,-0.0606,-0.0647,-0.0657,-0.0689,-0.0713,-0.0703,-0.0752,-0.076,-0.0763,-0.0732,-0.0731,-0.0729,-0.0709,-0.0727,0,0,0,0,0,-0.0382,-0.0404,-0.0444,-0.0457,-0.047,-0.0506,-0.0521,-0.0543,-0.0576,-0.0591,-0.0628,-0.0666,-0.0696,-0.0718,-0.0745,-0.077,-0.0773,-0.0783,-0.0781,-0.078,-0.077,-0.0781,-0.0779,-0.08,-0.08,-0.08,0,0,-0.0371,-0.0401,-0.0413,-0.0451,-0.0473,-0.0485,-0.0517,-0.0537,-0.0552,-0.0595,-0.0628,-0.0661,-0.0702,-0.073,-0.0747,-0.0753,-0.0775,-0.0781,-0.078,-0.077,-0.0781,-0.0779,-0.0777,-0.08,-0.08,-0.08,0,0,-0.0354,-0.0385,-0.0397,-0.0415,-0.045,-0.0471,-0.0477,-0.0518,-0.0543,-0.0573,-0.061,-0.0643,-0.0694,-0.0722,-0.0743,-0.0751,-0.0765,-0.0768,-0.0749,-0.0759,-0.0757,-0.0755,-0.0745,-0.0743,-0.0771,-0.0771,-0.0771,0,-0.0337,-0.0361,-0.0399,-0.041,-0.0422,-0.0463,-0.0468,-0.0494,-0.0542,-0.0558,-0.058,-0.0651,-0.0687,-0.0718,-0.0726,-0.0746,-0.0749,-0.0749,-0.0755,-0.0754,-0.0753,-0.0743,-0.0741,-0.0769,-0.0769,-0.0769,-0.077,0,-0.0331,-0.0347,-0.0351,-0.0383,-0.0397,-0.0406,-0.0444,-0.0463,-0.0497,-0.0528,-0.0569,-0.0619,-0.0658,-0.0682,-0.0709,-0.0724,-0.0726,-0.0748,-0.0753,-0.0748,-0.0739,-0.0737,-0.0767,-0.0767,-0.0768,-0.0768,0,0,-0.0293,-0.034,-0.0339,-0.0347,-0.0384,-0.0391,-0.0409,-0.0437,-0.0444,-0.0501,-0.0512,-0.0581,-0.0609,-0.0634,-0.0675,-0.0694,-0.0689,-0.0717,-0.0718,-0.0695,-0.0696,-0.0602,-0.0591,-0.0713,-0.0713,-0.0713,-0.0689,0,-0.0274,-0.029,-0.0317,-0.0317,-0.0326,-0.0357,-0.0367,-0.0396,-0.0427,-0.0445,-0.0505,-0.0533,-0.0591,-0.0605,-0.0635,-0.0672,-0.0685,-0.0692,-0.0715,-0.0715,-0.0623,-0.0586,-0.0571,-0.054,-0.0687,-0.0687,-0.0687,0,-0.0253,-0.0269,-0.0273,-0.0291,-0.0295,-0.0297,-0.0308,-0.0323,-0.0358,-0.0381,-0.042,-0.0462,-0.0502,-0.0547,-0.0606,-0.0608,-0.0646,-0.0678,-0.0678,-0.0599,-0.0617,-0.0573,-0.0531,-0.0684,-0.0684,-0.0684,-0.0684,0,-0.021,-0.023,-0.0233,-0.024,-0.0267,-0.0266,-0.0277,-0.0304,-0.0306,-0.0334,-0.0328,-0.0394,-0.0407,-0.0474,-0.054,-0.0574,-0.0584,-0.0639,-0.059,-0.0584,-0.0577,-0.0569,-0.067,-0.067,-0.067,-0.067,-0.067,0,-0.0183,-0.0177,-0.0212,-0.0211,-0.0198,-0.023,-0.0214,-0.0231,-0.024,-0.022,-0.0291,-0.0276,-0.039,-0.0414,-0.0496,-0.0509,-0.0548,-0.0562,-0.0564,-0.0562,-0.0553,-0.0691,-0.0694,-0.0669,-0.0669,-0.0669,-0.067,0,-0.0137,-0.0162,-0.0157,-0.0179,-0.0179,-0.0169,-0.0168,-0.0156,-0.017,-0.0135,-0.0136,-0.0177,-0.0192,-0.0283,-0.0364,-0.0421,-0.0466,-0.0467,-0.0437,-0.0434,-0.0476,-0.0478,-0.0412,-0.0408,-0.0405,-0.0402,-0.04,0,-0.012,-0.0117,-0.0123,-0.0115,-0.0123,-0.0114,-0.0103,-0.0118,-0.0097,-0.0064,-0.0036,-0.0035,0.0008,-0.0057,-0.0171,-0.0248,-0.0344,-0.0296,-0.0356,-0.0437,-0.0447,-0.0453,-0.0459,-0.0345,-0.0342,-0.034,-0.0338,0,-0.0085,-0.0085,-0.0087,-0.0069,-0.0055,-0.0033,-0.0016,0.0023,0.0032,0.0095,0.0175,0.0225,0.0177,0.0128,0.003,-0.0056,-0.0281,-0.0252,-0.035,-0.0391,-0.0366,-0.0378,-0.0388,-0.032,-0.0322,-0.0324,-0.0325,-0.0325,-0.0056,-0.0046,-0.0048,-0.0025,-0.0,0.0051,0.0097,0.0153,0.0244,0.0371,0.0372,0.046,0.0333,0.0255,0.0127,-0.0056,-0.0081,-0.0182,-0.0193,-0.0204,-0.018,-0.0148,-0.0057,-0.0057,-0.0057,-0.0058,-0.0058,0,-0.0033,-0.0027,-0.0006,0.0025,0.0074,0.0077,0.0157,0.024,0.0398,0.0503,0.0624,0.0555,0.0523,0.0341,0.0121,0.0014,-0.0067,-0.0057,-0.0155,-0.0169,-0.0183,-0.0163,-0.0034,-0.0034,-0.0034,-0.0034,0,0,-0.0027,-0.001,0.0001,0.0082,0.0121,0.0204,0.027,0.0426,0.0516,0.0678,0.0724,0.0795,0.0568,0.0414,0.0236,0.0099,-0.0019,0.0063,0.0058,-0.005,-0.0063,-0.0236,-0.0216,0,0,0,0,0]}],[{"header":{"parameterUnit":"m.s-1","parameterCategory":2,"la1":30.2991,"la2":30.254,"lo1":-89.0895,"lo2":-89.0444,"dy":0.0017,"dx":0.0017,"nx":28,"ny":28,"refTime":"2025-04-23T03:00:00:Z","depth":"4","parameterNumber":2,"parameterNumberName":"U-component_of_CURRENTS"},"data":[0,0,0,0,0,0,0,0,0,0,0,0,0,0,0,0,0,0,0,0,0,0,0,0,0,0,0,0,0,0,0,0,0,0,0,0,0,0,0,0,0,0,0,0,0,0,0,0,0,0,0,0,0,0,0,0,0,0,0.0394,0.0394,0,0.0416,0.0416,0.0416,0.0447,0.0447,0.0448,0.0449,0.0521,0.0522,0.0523,0,0,0,0,0,0,0,0,0,0,0,0,0,0.0357,0.0358,0.0394,0.0394,0.0395,0.0416,0.0416,0.0416,0.0446,0.0447,0.0448,0.0449,0.052,0.0522,0.0523,0,0,0,0,0,0,0,0,0,0,0,0,0,0.0373,0.0358,0.0394,0.0415,0.0417,0.0416,0.0416,0.0416,0.0446,0.0447,0.0449,0.045,0.052,0.0522,0.0523,0.0512,0,0,0.0529,0.053,0,0,0,0,0,0,0,0,0.0372,0.0374,0.0411,0.0413,0.0416,0.0432,0.0429,0.0451,0.0446,0.0432,0.0449,0.045,0.0496,0.05,0.0497,0.0515,0.0518,0.0529,0.053,0.0531,0.0531,0,0,0,0,0,0,0,0.0371,0.0373,0.04,0.0412,0.0414,0.0416,0.0419,0.0433,0.0457,0.0434,0.0437,0.0443,0.0498,0.0495,0.05,0.0519,0.0529,0.0531,0.0532,0.0532,0.0646,0.0648,0,0,0,0,0,0,0.0374,0.0372,0.0399,0.0401,0.0399,0.0416,0.0419,0.0423,0.0456,0.0462,0.0442,0.0444,0.0492,0.0497,0.0502,0.06,0.0531,0.0533,0.0534,0.0644,0.0646,0.0648,0,0,0,0,0,0,0.0373,0.0376,0.0399,0.0389,0.0393,0.0415,0.042,0.0423,0.0446,0.0462,0.0469,0.0464,0.0493,0.05,0.0554,0.0599,0.0533,0.0535,0.0642,0.0645,0.0647,0.0726,0,0,0,0,0,0,0.0371,0.0375,0.0387,0.0389,0.0393,0.041,0.0419,0.0423,0.0448,0.0452,0.0483,0.0489,0.0494,0.0551,0.0556,0.0601,0.0536,0.0639,0.0643,0.0646,0.0721,0.0731,0.074,0,0,0,0,0,0.037,0.0374,0.0387,0.0391,0.0406,0.0411,0.0412,0.043,0.0448,0.0456,0.0497,0.0489,0.0578,0.0554,0.0559,0.0606,0.0637,0.0642,0.0646,0.0717,0.0729,0.074,0,0,0,0,0,0,0.0366,0.0378,0.0392,0.0402,0.0414,0.0417,0.0432,0.0442,0.0477,0.0493,0.0511,0.052,0.0576,0.0582,0.0556,0.0649,0.0607,0.0613,0.0659,0.0671,0.068,0.0627,0.0538,0,0,0,0,0,0.0371,0.0373,0.0391,0.0398,0.0413,0.0428,0.0437,0.0448,0.0473,0.0489,0.052,0.0557,0.0591,0.0626,0.064,0.0698,0.0673,0.0732,0.0741,0.0749,0.071,0.074,0.0748,0.0663,0.0663,0.0663,0,0,0.0369,0.0377,0.038,0.0397,0.0414,0.0432,0.0437,0.0455,0.0475,0.0492,0.0548,0.058,0.0608,0.0669,0.0697,0.0689,0.0765,0.0755,0.0762,0.0717,0.0745,0.0753,0.076,0.0666,0.0665,0.0665,0,0,0.0368,0.0383,0.0394,0.0406,0.0434,0.0442,0.0455,0.0481,0.0505,0.0546,0.0578,0.0626,0.0685,0.0715,0.0737,0.0803,0.0799,0.0844,0.0871,0.0903,0.0909,0.0914,0.0906,0.091,0.0869,0.087,0.087,0,0.0375,0.0386,0.0398,0.0416,0.043,0.0453,0.0474,0.0493,0.0535,0.0561,0.057,0.0662,0.0686,0.0763,0.0799,0.0819,0.0838,0.083,0.0913,0.0918,0.0922,0.0912,0.0915,0.0874,0.0873,0.0873,0.0873,0,0.038,0.0399,0.0409,0.044,0.0455,0.0471,0.0503,0.0534,0.0565,0.0588,0.0658,0.0697,0.0752,0.0792,0.0817,0.089,0.0894,0.0907,0.088,0.0935,0.0922,0.0924,0.088,0.0879,0.0877,0.0876,0,0,0.0369,0.0408,0.0413,0.0433,0.0469,0.0478,0.052,0.056,0.0595,0.064,0.0692,0.0755,0.0788,0.0812,0.0873,0.0912,0.0966,0.0944,0.0944,0.0925,0.1036,0.0984,0.098,0.1032,0.1033,0.1033,0.1019,0,0.0378,0.041,0.0425,0.0458,0.0482,0.051,0.0544,0.0582,0.0621,0.068,0.0726,0.0793,0.08,0.0862,0.0897,0.0948,0.0975,0.0966,0.0991,0.0989,0.0929,0.0981,0.1035,0.102,0.1021,0.1021,0.1021,0,0.0379,0.0401,0.0437,0.0474,0.049,0.0514,0.0569,0.0603,0.0677,0.0712,0.0774,0.0825,0.0892,0.0896,0.0952,0.0969,0.0993,0.1015,0.1016,0.0926,0.094,0.0951,0.1023,0.1023,0.1023,0.1023,0.1023,0,0.0357,0.0402,0.0431,0.0443,0.0496,0.0524,0.0558,0.0621,0.0658,0.0752,0.079,0.0864,0.0919,0.0951,0.0993,0.0999,0.1044,0.105,0.1007,0.1003,0.1015,0.1009,0.1067,0.1067,0.1067,0.1067,0.1067,0,0.0346,0.0368,0.0428,0.0442,0.0482,0.0524,0.0575,0.0618,0.0693,0.074,0.0818,0.0864,0.0947,0.0993,0.1006,0.1004,0.1048,0.0987,0.0998,0.1052,0.105,0.1017,0.1011,0.1067,0.1067,0.1067,0.1067,0,0.0315,0.0354,0.0386,0.0449,0.0473,0.0504,0.0578,0.0609,0.0685,0.0751,0.0791,0.0885,0.093,0.0982,0.1041,0.1015,0.1023,0.1017,0.105,0.1066,0.0947,0.0946,0.0934,0.0932,0.093,0.0929,0.0928,0,0.0306,0.0321,0.0383,0.0405,0.0439,0.0494,0.0525,0.0602,0.0634,0.0745,0.0767,0.0862,0.0912,0.0926,0.0984,0.0989,0.0991,0.0983,0.0961,0.0923,0.0935,0.0937,0.0938,0.0925,0.0925,0.0924,0.0924,0,0.0286,0.0309,0.0335,0.0375,0.0413,0.0445,0.05,0.0522,0.0609,0.0682,0.0739,0.0791,0.0842,0.0883,0.0918,0.0919,0.0979,0.0966,0.0969,0.0947,0.0913,0.0927,0.093,0.0918,0.0919,0.092,0.092,0,0.0273,0.0279,0.0311,0.0344,0.0378,0.0392,0.0425,0.0471,0.0518,0.0641,0.0657,0.0744,0.0829,0.0846,0.0866,0.0877,0.0852,0.0828,0.0837,0.0844,0.0826,0.077,0.0728,0,0,0,0,0,0.0261,0.026,0.0279,0.0308,0.0332,0.0353,0.0404,0.0439,0.0527,0.0546,0.0604,0.0649,0.0704,0.0749,0.0739,0.081,0.0846,0.0795,0.0819,0.0888,0.0894,0.0885,0,0,0,0,0,0,0.0252,0.0264,0.0265,0.0268,0.0279,0.03,0.0328,0.0383,0.04,0.0497,0.0525,0.0608,0.0661,0.0701,0.0727,0.074,0.0742,0.0851,0.085,0.0884,0.089,0.0895,0.0887,0,0,0,0,0]},{"header":{"parameterUnit":"m.s-1","parameterCategory":2,"la1":30.2991,"la2":30.254,"lo1":-89.0895,"lo2":-89.0444,"dy":0.0017,"dx":0.0017,"nx":28,"ny":28,"refTime":"2025-04-23T03:00:00:Z","depth":"4","parameterNumber":3,"parameterNumberName":"V-component_of_CURRENTS"},"data":[0,0,0,0,0,0,0,0,0,0,0,0,0,0,0,0,0,0,0,0,0,0,0,0,0,0,0,0,0,0,0,0,0,0,0,0,0,0,0,0,0,0,0,0,0,0,0,0,0,0,0,0,0,0,0,0,0,0,0.0408,0.0409,0,0.0413,0.0412,0.0412,0.0414,0.0415,0.0415,0.0415,0.0434,0.0434,0.0434,0,0,0,0,0,0,0,0,0,0,0,0,0,0.039,0.039,0.0408,0.0409,0.0409,0.0413,0.0412,0.0412,0.0414,0.0415,0.0415,0.0415,0.0434,0.0434,0.0434,0,0,0,0,0,0,0,0,0,0,0,0,0,0.0394,0.039,0.0408,0.0412,0.0412,0.0413,0.0412,0.0412,0.0414,0.0415,0.0415,0.0415,0.0434,0.0434,0.0434,0.0431,0,0,0.0436,0.0436,0,0,0,0,0,0,0,0,0.0394,0.0395,0.0411,0.0412,0.0412,0.0415,0.0413,0.042,0.0414,0.0411,0.0415,0.0415,0.043,0.0431,0.0428,0.0432,0.0433,0.0436,0.0436,0.0436,0.0437,0,0,0,0,0,0,0,0.0394,0.0394,0.0408,0.0411,0.0412,0.0409,0.041,0.0414,0.0417,0.0412,0.0412,0.0416,0.043,0.0427,0.0428,0.0433,0.0436,0.0436,0.0437,0.0437,0.0448,0.0448,0,0,0,0,0,0,0.0398,0.0394,0.0408,0.0408,0.0406,0.041,0.0411,0.0412,0.0417,0.0419,0.0416,0.0416,0.0426,0.0428,0.0429,0.045,0.0436,0.0437,0.0437,0.0448,0.0448,0.0448,0,0,0,0,0,0,0.0397,0.0399,0.0408,0.0403,0.0404,0.041,0.0412,0.0412,0.0418,0.0421,0.0422,0.0423,0.0427,0.0428,0.0442,0.045,0.0437,0.0437,0.0448,0.0448,0.0448,0.0477,0,0,0,0,0,0,0.0397,0.0399,0.0405,0.0403,0.0405,0.0412,0.0412,0.0412,0.0421,0.0421,0.0427,0.0428,0.0427,0.0442,0.0443,0.045,0.0438,0.0448,0.0448,0.0448,0.0476,0.0478,0.048,0,0,0,0,0,0.0396,0.0402,0.0405,0.0407,0.0412,0.0412,0.0413,0.0416,0.0421,0.0422,0.0431,0.0429,0.0442,0.0443,0.0444,0.0452,0.0448,0.0448,0.0448,0.0475,0.0478,0.048,0,0,0,0,0,0,0.0397,0.0403,0.0406,0.0414,0.0416,0.0414,0.042,0.0421,0.0428,0.0433,0.0434,0.0436,0.0448,0.0445,0.0445,0.0453,0.0442,0.0443,0.0462,0.0465,0.0467,0.0453,0.0438,0,0,0,0,0,0.0401,0.0409,0.041,0.0418,0.0421,0.0422,0.0425,0.0426,0.0431,0.0434,0.0442,0.0446,0.0447,0.0453,0.0453,0.0463,0.0439,0.0466,0.0468,0.047,0.0458,0.043,0.0428,0.0448,0.0448,0.0448,0,0,0.0404,0.041,0.0414,0.042,0.0423,0.0426,0.0424,0.0431,0.0437,0.0436,0.0453,0.0454,0.045,0.0459,0.0464,0.0461,0.0452,0.047,0.0471,0.0458,0.043,0.0428,0.0426,0.0448,0.0448,0.0448,0,0,0.041,0.0419,0.0425,0.0427,0.0435,0.0436,0.0441,0.0445,0.0451,0.0462,0.0463,0.0466,0.0477,0.0472,0.047,0.048,0.0461,0.0485,0.0489,0.0463,0.0461,0.0459,0.043,0.0425,0.0489,0.0489,0.0489,0,0.0414,0.0422,0.0427,0.0431,0.0437,0.0442,0.0447,0.0452,0.0462,0.0467,0.0471,0.0475,0.0476,0.0477,0.048,0.0484,0.0466,0.0485,0.0465,0.0462,0.046,0.0431,0.0425,0.0491,0.0491,0.049,0.049,0,0.042,0.0429,0.0434,0.0443,0.0448,0.0455,0.0461,0.0471,0.0482,0.0484,0.0491,0.0489,0.0488,0.0492,0.049,0.0478,0.047,0.047,0.046,0.0459,0.0429,0.0423,0.0493,0.0492,0.0492,0.0491,0,0,0.0418,0.0435,0.0437,0.0446,0.0456,0.0461,0.0473,0.0482,0.0491,0.0498,0.0503,0.0501,0.0499,0.0495,0.0496,0.0475,0.0446,0.0467,0.0465,0.044,0.0386,0.0359,0.0349,0.0446,0.0445,0.0445,0.0374,0,0.0422,0.0437,0.0442,0.0458,0.0466,0.0475,0.0488,0.0496,0.0503,0.051,0.0503,0.0509,0.0502,0.0507,0.0484,0.0456,0.0429,0.0464,0.0388,0.0386,0.0363,0.0341,0.0441,0.0369,0.0367,0.0366,0.0366,0,0.0422,0.0435,0.0451,0.0472,0.0477,0.049,0.0509,0.052,0.0526,0.0529,0.0524,0.0519,0.0499,0.0492,0.0428,0.0453,0.0415,0.0389,0.0385,0.0342,0.0347,0.0368,0.0353,0.0354,0.0355,0.0356,0.0357,0,0.0419,0.0439,0.0457,0.0463,0.0486,0.0501,0.0519,0.053,0.0546,0.0544,0.0548,0.0519,0.0512,0.0457,0.0404,0.0416,0.0324,0.0334,0.027,0.0268,0.0301,0.0304,0.0272,0.0273,0.0273,0.0273,0.0273,0,0.0418,0.043,0.0463,0.0472,0.0501,0.0514,0.0543,0.0551,0.0567,0.0579,0.0563,0.0556,0.0503,0.0452,0.0396,0.0307,0.0314,0.0253,0.0242,0.0316,0.0322,0.0297,0.0301,0.027,0.0271,0.0271,0.0272,0,0.0404,0.0425,0.0449,0.0485,0.0501,0.0523,0.057,0.0588,0.0599,0.0611,0.0614,0.0582,0.051,0.0444,0.035,0.0299,0.0217,0.0184,0.026,0.0257,0.018,0.0186,0.0099,0.0097,0.0096,0.0095,0.0094,0,0.0393,0.0407,0.0459,0.0481,0.0502,0.0542,0.0573,0.0604,0.062,0.0621,0.0622,0.0569,0.0534,0.0377,0.0307,0.0182,0.017,0.0125,0.0152,0.0161,0.0159,0.0167,0.0175,0.0092,0.0091,0.0091,0.0091,0,0.0375,0.0401,0.0423,0.0476,0.0516,0.0556,0.06,0.0614,0.0641,0.0654,0.0616,0.0547,0.0461,0.0359,0.0261,0.0177,0.0152,0.011,0.0113,0.0138,0.0151,0.0152,0.0162,0.0086,0.0086,0.0087,0.0087,0,0.0362,0.0377,0.0419,0.0462,0.0511,0.0551,0.058,0.0599,0.0619,0.0624,0.0606,0.0527,0.0491,0.0354,0.0264,0.0175,0.0157,0.0133,0.0135,0.0139,0.0175,0.0199,0.0123,0,0,0,0,0,0.0347,0.0367,0.0403,0.0451,0.0499,0.0532,0.0586,0.0612,0.0641,0.0611,0.0611,0.0529,0.0395,0.0342,0.0246,0.0236,0.0141,0.0119,0.0114,0.0059,0.0064,0.0097,0,0,0,0,0,0,0.0337,0.037,0.0392,0.0432,0.0463,0.0517,0.0553,0.0577,0.0563,0.0578,0.0508,0.0493,0.0364,0.0442,0.0237,0.0213,0.0194,0.0066,0.0064,0.0056,0.0061,0.0065,0.0101,0,0,0,0,0]}]]